PLF103 UDYZ-EPWA

Flight info

Callsign PLF103
Flight time N/A
Altitude 36000
Route INDUR N161 YAVUZ UN161 ERZ UW704 CRM UL746 ODERO DCT KARIL DCT KENIN DCT ORTEB DCT KONZI DCT LOGDA
Aircraft B738/M-SDE2E3FGHIRWXY/LB1

Departure

Time N/A
Airport Zvartnots International Airport (UDYZ)

Arrival

Time 2026-05-04 13:21
Airport Warsaw Chopin Airport (EPWA)
Time Latitude Longitude Altitude Speed Heading
2026-05-04 11:51 44.22760 28.32302 35252 ft 327 kts 321°
2026-05-04 11:51 44.24379 28.30058 35508 ft 331 kts 315°
2026-05-04 11:52 44.25914 28.27609 35529 ft 343 kts 313°
2026-05-04 11:52 44.29117 28.22441 35590 ft 363 kts 314°
2026-05-04 11:53 44.32602 28.17108 35657 ft 384 kts 315°
2026-05-04 11:53 44.34455 28.14325 35679 ft 395 kts 315°
2026-05-04 11:53 44.36319 28.11533 35743 ft 404 kts 315°
2026-05-04 11:53 44.38257 28.08631 35849 ft 412 kts 315°
2026-05-04 11:55 44.52768 27.86831 36355 ft 456 kts 315°
2026-05-04 11:55 44.54915 27.83590 36568 ft 457 kts 314°
2026-05-04 11:56 44.57075 27.80322 36751 ft 457 kts 314°
2026-05-04 11:56 44.59225 27.77070 36988 ft 455 kts 314°
2026-05-04 11:56 44.61357 27.73838 37242 ft 455 kts 315°
2026-05-04 11:56 44.63522 27.70555 37504 ft 455 kts 314°
2026-05-04 11:57 44.65642 27.67338 37760 ft 454 kts 315°
2026-05-04 11:57 44.67798 27.64064 37977 ft 454 kts 314°
2026-05-04 11:57 44.69937 27.60812 38023 ft 454 kts 315°
2026-05-04 11:58 44.74189 27.54334 38039 ft 451 kts 314°
2026-05-04 11:58 44.78408 27.47892 38049 ft 453 kts 314°
2026-05-04 11:59 44.82668 27.41367 38040 ft 453 kts 314°
2026-05-04 11:59 44.86900 27.34872 38043 ft 453 kts 314°
2026-05-04 12:00 44.91172 27.28300 38054 ft 453 kts 313°
2026-05-04 12:00 44.95390 27.21796 38058 ft 454 kts 313°
2026-05-04 12:01 44.99631 27.15238 38056 ft 452 kts 313°
2026-05-04 12:02 45.14448 26.92207 38036 ft 454 kts 313°
2026-05-04 12:03 45.18688 26.85582 38047 ft 454 kts 313°
2026-05-04 12:03 45.22906 26.78974 38051 ft 453 kts 313°
2026-05-04 12:04 45.27118 26.72362 38051 ft 453 kts 313°
2026-05-04 12:04 45.31308 26.65770 38058 ft 453 kts 313°
2026-05-04 12:05 45.35524 26.59121 38065 ft 452 kts 313°
2026-05-04 12:05 45.39706 26.52508 38067 ft 452 kts 313°
2026-05-04 12:06 45.43896 26.45866 38065 ft 451 kts 313°
2026-05-04 12:06 45.48068 26.39234 38056 ft 451 kts 313°
2026-05-04 12:07 45.52233 26.32598 38051 ft 450 kts 313°
2026-05-04 12:07 45.56345 26.26030 38060 ft 447 kts 313°
2026-05-04 12:08 45.60491 26.19396 38060 ft 448 kts 312°
2026-05-04 12:08 45.64630 26.12760 38069 ft 448 kts 313°
2026-05-04 12:09 45.68749 26.06141 38070 ft 447 kts 313°
2026-05-04 12:09 45.72865 25.99511 38071 ft 448 kts 313°
2026-05-04 12:10 45.76965 25.92889 38078 ft 446 kts 313°
2026-05-04 12:10 45.81057 25.86261 38077 ft 445 kts 313°
2026-05-04 12:11 45.85131 25.79648 38082 ft 445 kts 313°
2026-05-04 12:11 45.89243 25.72962 38087 ft 446 kts 313°
2026-05-04 12:12 45.93318 25.66313 38091 ft 446 kts 313°
2026-05-04 12:12 45.97374 25.59680 38093 ft 445 kts 313°
2026-05-04 12:14 46.13620 25.32959 38098 ft 446 kts 312°
2026-05-04 12:15 46.17691 25.26224 38095 ft 445 kts 313°
2026-05-04 12:15 46.21720 25.19529 38096 ft 443 kts 312°
2026-05-04 12:16 46.25731 25.12851 38099 ft 443 kts 313°
2026-05-04 12:16 46.29766 25.06127 38100 ft 445 kts 313°
2026-05-04 12:17 46.33811 24.99369 38098 ft 445 kts 313°
2026-05-04 12:17 46.37828 24.92635 38094 ft 445 kts 313°
2026-05-04 12:18 46.41855 24.85874 38100 ft 443 kts 313°
2026-05-04 12:18 46.45863 24.79133 38097 ft 441 kts 313°
2026-05-04 12:19 46.49853 24.72405 38095 ft 441 kts 313°
2026-05-04 12:19 46.53833 24.65675 38084 ft 444 kts 313°
2026-05-04 12:20 46.57837 24.58880 38088 ft 443 kts 313°
2026-05-04 12:20 46.61825 24.52096 38089 ft 443 kts 313°
2026-05-04 12:21 46.65798 24.45329 38091 ft 442 kts 313°
2026-05-04 12:21 46.69772 24.38539 38094 ft 442 kts 313°
2026-05-04 12:22 46.73751 24.31725 38088 ft 441 kts 312°
2026-05-04 12:22 46.77709 24.24931 38087 ft 442 kts 312°
2026-05-04 12:23 46.81658 24.18134 38077 ft 442 kts 312°
2026-05-04 12:23 46.85625 24.11288 38077 ft 443 kts 312°
2026-05-04 12:24 46.89592 24.04427 38079 ft 442 kts 312°
2026-05-04 12:24 46.93545 23.97572 38079 ft 442 kts 312°
2026-05-04 12:25 46.97486 23.90722 38085 ft 442 kts 312°
2026-05-04 12:25 47.01427 23.83851 38085 ft 442 kts 312°
2026-05-04 12:26 47.05360 23.76978 38094 ft 442 kts 312°
2026-05-04 12:26 47.09280 23.70111 38096 ft 441 kts 312°
2026-05-04 12:27 47.13190 23.63243 38096 ft 441 kts 312°
2026-05-04 12:27 47.17109 23.56340 38099 ft 440 kts 312°
2026-05-04 12:28 47.20996 23.49483 38103 ft 439 kts 312°
2026-05-04 12:28 47.24897 23.42582 38111 ft 438 kts 312°
2026-05-04 12:29 47.28755 23.35738 38102 ft 438 kts 312°
2026-05-04 12:29 47.32624 23.28859 38102 ft 439 kts 311°
2026-05-04 12:30 47.36496 23.21955 38102 ft 438 kts 311°
2026-05-04 12:30 47.40362 23.15041 38108 ft 438 kts 311°
2026-05-04 12:31 47.44220 23.08127 38109 ft 437 kts 311°
2026-05-04 12:31 47.48078 23.01196 38119 ft 437 kts 311°
2026-05-04 12:32 47.53833 22.90826 38116 ft 437 kts 311°
2026-05-04 12:33 47.57674 22.83881 38113 ft 437 kts 311°
2026-05-04 12:33 47.61480 22.76981 38112 ft 436 kts 311°
2026-05-04 12:34 47.65307 22.70028 38104 ft 435 kts 311°
2026-05-04 12:34 47.69111 22.63101 38101 ft 436 kts 311°
2026-05-04 12:35 47.72908 22.56169 38099 ft 436 kts 311°
2026-05-04 12:35 47.76742 22.49199 38098 ft 436 kts 313°
2026-05-04 12:36 47.80997 22.42922 38101 ft 433 kts 324°
2026-05-04 12:36 47.85972 22.37964 38094 ft 431 kts 330°
2026-05-04 12:37 47.91097 22.33456 38088 ft 430 kts 331°
2026-05-04 12:37 47.96253 22.28953 38089 ft 431 kts 330°
2026-05-04 12:38 48.01419 22.24373 38087 ft 431 kts 330°
2026-05-04 12:38 48.06519 22.19800 38087 ft 432 kts 330°
2026-05-04 12:39 48.11670 22.15143 38083 ft 432 kts 330°
2026-05-04 12:39 48.16801 22.10482 38084 ft 432 kts 330°
2026-05-04 12:40 48.21912 22.05823 38078 ft 432 kts 330°
2026-05-04 12:40 48.27007 22.01164 38074 ft 431 kts 329°
2026-05-04 12:41 48.32127 21.96473 38075 ft 431 kts 329°
2026-05-04 12:41 48.37212 21.91833 38077 ft 431 kts 331°
2026-05-04 12:42 48.42500 21.87658 38072 ft 431 kts 335°
2026-05-04 12:42 48.47893 21.83723 38066 ft 431 kts 335°
2026-05-04 12:43 48.53276 21.79777 38063 ft 431 kts 335°
2026-05-04 12:43 48.58635 21.75788 38071 ft 431 kts 334°
2026-05-04 12:44 48.63966 21.71776 38069 ft 430 kts 334°
2026-05-04 12:44 48.69326 21.67713 38068 ft 431 kts 334°
2026-05-04 12:45 48.74657 21.63656 38073 ft 430 kts 334°
2026-05-04 12:45 48.80000 21.59576 38069 ft 430 kts 334°
2026-05-04 12:46 48.85320 21.55503 38068 ft 431 kts 334°
2026-05-04 12:46 48.90655 21.51411 38071 ft 431 kts 334°
2026-05-04 12:47 48.95962 21.47330 38066 ft 430 kts 334°
2026-05-04 12:47 49.01303 21.43213 38061 ft 431 kts 334°
2026-05-04 12:48 49.06611 21.39112 38060 ft 430 kts 334°
2026-05-04 12:48 49.11935 21.34986 38055 ft 430 kts 333°
2026-05-04 12:49 49.17234 21.30869 38056 ft 430 kts 333°
2026-05-04 12:49 49.22600 21.26763 38053 ft 429 kts 337°
2026-05-04 12:50 49.28364 21.24454 38057 ft 430 kts 350°
2026-05-04 12:50 49.34266 21.23160 38052 ft 430 kts 352°
2026-05-04 12:51 49.40184 21.21878 38059 ft 430 kts 351°
2026-05-04 12:51 49.46093 21.20447 38066 ft 431 kts 350°
2026-05-04 12:52 49.51967 21.18931 38058 ft 431 kts 349°
2026-05-04 12:52 49.57861 21.17362 38060 ft 431 kts 349°
2026-05-04 12:53 49.63754 21.15771 38054 ft 431 kts 349°
2026-05-04 12:53 49.69627 21.14195 38047 ft 431 kts 351°
2026-05-04 12:54 49.75607 21.13356 38042 ft 434 kts 356°
2026-05-04 12:54 49.81620 21.12994 38047 ft 434 kts 357°
2026-05-04 12:55 49.87633 21.12635 38044 ft 434 kts 356°
2026-05-04 12:55 49.93674 21.12205 38036 ft 434 kts 356°
2026-05-04 12:56 49.99664 21.11728 38027 ft 433 kts 356°
2026-05-04 12:56 50.05641 21.11226 38023 ft 434 kts 356°
2026-05-04 12:57 50.11671 21.10708 38009 ft 435 kts 355°
2026-05-04 12:57 50.17707 21.10184 38010 ft 434 kts 356°
2026-05-04 12:58 50.23705 21.09662 38003 ft 435 kts 355°
2026-05-04 12:58 50.29684 21.09142 37667 ft 423 kts 355°
2026-05-04 12:58 50.32606 21.08887 37251 ft 415 kts 355°
2026-05-04 12:59 50.35424 21.08641 36773 ft 409 kts 355°
2026-05-04 12:59 50.38248 21.08394 36293 ft 409 kts 355°
2026-05-04 12:59 50.41087 21.08145 35725 ft 409 kts 355°
2026-05-04 12:59 50.43905 21.07896 35081 ft 410 kts 355°
2026-05-04 13:00 50.46750 21.07644 34374 ft 412 kts 355°
2026-05-04 13:00 50.49603 21.07391 33640 ft 412 kts 355°
2026-05-04 13:00 50.52455 21.07137 32915 ft 413 kts 355°
2026-05-04 13:00 50.55302 21.06884 32182 ft 413 kts 355°
2026-05-04 13:01 50.58239 21.06621 31418 ft 429 kts 355°
2026-05-04 13:01 50.61234 21.06353 30609 ft 439 kts 355°
2026-05-04 13:01 50.64275 21.06081 29773 ft 445 kts 355°
2026-05-04 13:01 50.67376 21.05803 28993 ft 446 kts 355°
2026-05-04 13:02 50.70409 21.05532 28422 ft 443 kts 355°
2026-05-04 13:02 50.73504 21.05257 27795 ft 441 kts 355°
2026-05-04 13:02 50.76522 21.04988 27144 ft 435 kts 355°
2026-05-04 13:02 50.79499 21.04722 26502 ft 430 kts 355°
2026-05-04 13:03 50.82480 21.04454 25859 ft 424 kts 355°
2026-05-04 13:03 50.85398 21.04191 25220 ft 419 kts 355°
2026-05-04 13:03 50.88279 21.03932 24569 ft 414 kts 355°
2026-05-04 13:03 50.91099 21.03677 23942 ft 409 kts 355°
2026-05-04 13:04 50.93923 21.03423 23320 ft 404 kts 355°
2026-05-04 13:04 50.96695 21.03173 22710 ft 399 kts 355°
2026-05-04 13:04 50.99441 21.02924 22100 ft 394 kts 354°
2026-05-04 13:04 51.02151 21.02678 21499 ft 390 kts 354°
2026-05-04 13:05 51.04820 21.02434 20903 ft 386 kts 354°
2026-05-04 13:05 51.07470 21.02191 20302 ft 382 kts 354°
2026-05-04 13:05 51.10044 21.01956 19719 ft 380 kts 354°
2026-05-04 13:05 51.12741 21.01708 19111 ft 377 kts 353°
2026-05-04 13:06 51.15360 21.01468 18516 ft 375 kts 353°
2026-05-04 13:06 51.17930 21.01233 17928 ft 373 kts 353°
2026-05-04 13:06 51.20403 21.01007 17373 ft 370 kts 353°
2026-05-04 13:06 51.22989 21.00771 16786 ft 368 kts 353°
2026-05-04 13:07 51.25506 21.00541 16210 ft 366 kts 353°
2026-05-04 13:07 51.28052 21.00308 15626 ft 364 kts 353°
2026-05-04 13:07 51.30541 21.00081 15059 ft 362 kts 353°
2026-05-04 13:07 51.33059 20.99851 14480 ft 360 kts 353°
2026-05-04 13:08 51.35521 20.99625 13912 ft 358 kts 353°
2026-05-04 13:08 51.38003 20.99397 13321 ft 357 kts 353°
2026-05-04 13:08 51.40458 20.99173 12760 ft 355 kts 353°
2026-05-04 13:08 51.42904 20.98948 12196 ft 351 kts 354°
2026-05-04 13:09 51.45339 20.98724 11639 ft 349 kts 354°
2026-05-04 13:09 51.47744 20.98502 11084 ft 346 kts 354°
2026-05-04 13:09 51.50112 20.98285 10677 ft 338 kts 354°
2026-05-04 13:09 51.52404 20.98078 10502 ft 324 kts 354°
2026-05-04 13:10 51.54607 20.97879 10398 ft 309 kts 353°
2026-05-04 13:10 51.56707 20.97687 10276 ft 297 kts 353°
2026-05-04 13:10 51.58722 20.97502 10138 ft 286 kts 353°
2026-05-04 13:10 51.60688 20.97318 9819 ft 284 kts 353°
2026-05-04 13:11 51.62639 20.97133 9429 ft 283 kts 353°
2026-05-04 13:11 51.64607 20.96949 9077 ft 281 kts 353°
2026-05-04 13:11 51.66552 20.96769 8735 ft 278 kts 353°
2026-05-04 13:11 51.68471 20.96591 8397 ft 276 kts 354°
2026-05-04 13:12 51.70380 20.96413 8062 ft 274 kts 354°
2026-05-04 13:12 51.72248 20.96240 7763 ft 270 kts 354°
2026-05-04 13:12 51.74112 20.96067 7457 ft 267 kts 353°
2026-05-04 13:12 51.75957 20.95895 7126 ft 265 kts 353°
2026-05-04 13:13 51.77799 20.95882 6796 ft 266 kts
2026-05-04 13:13 51.79575 20.96575 6487 ft 266 kts 18°
2026-05-04 13:13 51.81302 20.97681 6173 ft 264 kts 21°
2026-05-04 13:13 51.82984 20.98809 5861 ft 262 kts 20°
2026-05-04 13:14 51.84652 20.99880 5622 ft 257 kts 19°
2026-05-04 13:14 51.86308 21.00903 5433 ft 251 kts 18°
2026-05-04 13:14 51.87930 21.01886 5196 ft 248 kts 18°
2026-05-04 13:14 51.89538 21.02851 4954 ft 248 kts 18°
2026-05-04 13:15 51.91142 21.03816 4707 ft 247 kts 18°
2026-05-04 13:15 51.92760 21.04793 4529 ft 245 kts 18°
2026-05-04 13:15 51.94349 21.05754 4384 ft 244 kts 18°
2026-05-04 13:15 51.95908 21.06697 4223 ft 237 kts 18°
2026-05-04 13:16 51.97443 21.07627 4052 ft 230 kts 18°
2026-05-04 13:16 51.98917 21.08518 3854 ft 224 kts 18°
2026-05-04 13:16 52.00365 21.09338 3612 ft 217 kts 12°
2026-05-04 13:16 52.01826 21.09465 3327 ft 208 kts 343°
2026-05-04 13:17 52.03117 21.08564 3039 ft 201 kts 324°
2026-05-04 13:17 52.04295 21.07415 2772 ft 199 kts 326°
2026-05-04 13:17 52.05494 21.06354 2509 ft 196 kts 327°
2026-05-04 13:17 52.06657 21.05341 2256 ft 182 kts 327°
2026-05-04 13:18 52.07732 21.04407 2022 ft 169 kts 327°
2026-05-04 13:18 52.08723 21.03547 1825 ft 155 kts 327°
2026-05-04 13:18 52.09658 21.02735 1606 ft 146 kts 327°
2026-05-04 13:18 52.10528 21.01980 1431 ft 142 kts 327°
2026-05-04 13:19 52.11399 21.01245 1252 ft 141 kts 328°
2026-05-04 13:19 52.11976 21.00757 1129 ft 141 kts 328°
2026-05-04 13:19 52.13135 20.99750 875 ft 145 kts 327°
2026-05-04 13:19 52.13997 20.98977 693 ft 142 kts 327°
2026-05-04 13:20 52.14874 20.98203 512 ft 142 kts 328°
2026-05-04 13:20 52.15745 20.97441 348 ft 140 kts 328°
2026-05-04 13:20 52.16338 20.96916 334 ft 63 kts 330°
2026-05-04 13:20 52.16713 20.96586 331 ft 58 kts 332°
2026-05-04 13:21 52.17052 20.96301 337 ft 45 kts 339°
2026-05-04 13:21 52.17324 20.96246 341 ft 18 kts
2026-05-04 13:21 52.17423 20.96371 338 ft 19 kts 62°
2026-05-04 13:21 52.17496 20.96563 337 ft 20 kts 44°
2026-05-04 13:22 52.17574 20.96753 338 ft 20 kts 58°
2026-05-04 13:22 52.17633 20.96906 343 ft 12 kts 57°
2026-05-04 13:22 52.17675 20.97012 346 ft 10 kts 58°
2026-05-04 13:22 52.17678 20.97087 346 ft 16 kts 108°
2026-05-04 13:23 52.17548 20.97214 345 ft 19 kts 151°
2026-05-04 13:23 52.17521 20.97238 346 ft 0 kts 152°